Weather History for Kingman, AZ

Change the Weather History Date:

Monday, December 19, 2011

  Actual Average Record
Temperature  
Mean Temperature 42 °F 42 °F  
Max Temperature 52 °F 53 °F 76 °F (1917)
Min Temperature 31 °F 31 °F 19 °F (1909)
Degree Days  
Heating Degree Days 23 23  
Month to date heating degree days 475 410  
Since 1 July heating degree days 1058 976  
Cooling Degree Days 0 0  
Month to date cooling degree days 0 0  
Year to date cooling degree days 2110 2093  
Moisture  
Dew Point 34 °F    
Average Humidity 81    
Maximum Humidity 100    
Minimum Humidity 61    
Precipitation  
Precipitation 0.00 in 0.02 in 1.10 in (1967)
Month to date precipitation 1.22 0.44  
Year to date precipitation 9.40 8.09  
Sea Level Pressure  
Sea Level Pressure 29.93 in    
Wind  
Wind Speed 5 mph (SSW)    
Max Wind Speed 15 mph    
Max Gust Speed 17 mph    
Visibility 10 miles    
Events      
T = Trace of Precipitation, MM = Missing Value Source: NWS Daily Summary

Daily Weather History Graph

Daily Weather History Graph

Search for Another Location

Airport:

Trip Planner

Search our weather history database for the weather conditions in past years. The results will help you decide how hot, cold, wet, or windy it might be!

Date:

Astronomy

Dec. 19, 2011 Rise Set
Actual Time 7:39 AM MST 5:26 PM MST
Civil Twilight 7:11 AM MST 5:54 PM MST
Nautical Twilight 6:39 AM MST 6:26 PM MST
Astronomical Twilight 6:08 AM MST 6:57 PM MST
Moon 2:02 AM MST (12/19) 1:20 PM MST (12/19)
Length of Visible Light 10h 43m
Length of Day
9h 46m
Waning Crescent, 30% of the Moon is Illuminated
Dec 19
Waning Crescent
Dec 24
New
Dec 31
First Quarter
Jan 9
Full
Jan 16
Last Quarter

Hourly Weather History & Observations

Time (MST) Temp. Windchill Dew Point Humidity Pressure Visibility Wind Dir Wind Speed Gust Speed Precip Events Conditions
12:48 AM 33.1 °F 28.7 °F 30.9 °F 92% 29.92 in 10.0 mi SSE 4.6 mph - N/A   Clear
1:48 AM 34.0 °F - 32.0 °F 92% 29.90 in 10.0 mi Calm Calm - N/A   Clear
2:48 AM 33.1 °F 28.7 °F 30.9 °F 92% 29.89 in 10.0 mi South 4.6 mph - N/A   Clear
3:48 AM 35.1 °F 30.1 °F 32.0 °F 89% 29.88 in 10.0 mi South 5.8 mph - N/A   Clear
4:48 AM 35.1 °F - 32.0 °F 89% 29.89 in 10.0 mi Calm Calm - N/A   Clear
5:48 AM 34.0 °F 31.0 °F 32.0 °F 92% 29.90 in 10.0 mi SSW 3.5 mph - N/A   Partly Cloudy
6:48 AM 30.9 °F 26.2 °F 30.0 °F 96% 29.94 in 10.0 mi SE 4.6 mph - N/A   Partly Cloudy
7:48 AM 34.0 °F 28.8 °F 32.0 °F 92% 29.95 in 10.0 mi SSE 5.8 mph - N/A   Overcast
8:48 AM 36.0 °F 32.1 °F 34.0 °F 93% 29.96 in 10.0 mi South 4.6 mph - N/A   Mostly Cloudy
9:48 AM 43.0 °F - 36.0 °F 76% 29.96 in 10.0 mi Calm Calm - N/A   Scattered Clouds
10:48 AM 46.9 °F - 37.0 °F 68% 29.95 in 10.0 mi SW 8.1 mph - N/A   Clear
11:48 AM 48.9 °F - 37.9 °F 66% 29.93 in 10.0 mi Variable 5.8 mph - N/A   Clear
12:48 PM 50.0 °F - 37.0 °F 61% 29.91 in 10.0 mi SW 6.9 mph - N/A   Partly Cloudy
1:48 PM 51.1 °F - 39.0 °F 63% 29.89 in 10.0 mi SW 11.5 mph - N/A   Mostly Cloudy
2:48 PM 50.0 °F - 37.9 °F 63% 29.89 in 10.0 mi SW 9.2 mph - N/A   Scattered Clouds
3:48 PM 50.0 °F - 37.9 °F 63% 29.91 in 10.0 mi WSW 10.4 mph - N/A   Overcast
4:48 PM 48.9 °F - 37.0 °F 64% 29.92 in 10.0 mi Calm Calm - N/A   Partly Cloudy
5:48 PM 43.0 °F 39.5 °F 37.9 °F 82% 29.94 in 10.0 mi SSW 5.8 mph - N/A   Clear
6:48 PM 41.0 °F 35.8 °F 37.9 °F 89% 29.96 in 10.0 mi SSW 8.1 mph - N/A   Clear
7:48 PM 39.0 °F 34.0 °F 36.0 °F 89% 29.96 in 10.0 mi South 6.9 mph - N/A   Clear
8:48 PM 39.0 °F - 35.1 °F 86% 29.97 in 10.0 mi Calm Calm - N/A   Clear
9:48 PM 35.1 °F 32.2 °F 32.0 °F 89% 29.96 in 10.0 mi SE 3.5 mph - N/A   Clear
10:48 PM 33.1 °F - 30.9 °F 92% 29.98 in 10.0 mi Calm Calm - N/A   Clear
11:48 PM 35.1 °F - 32.0 °F 89% 29.98 in 10.0 mi Calm Calm - N/A   Clear